Location: Caltech
(34.1382°N, 118.1253°W)
Time: 14:17:44
(UTC-07:00)

MaSat-1 - Visible Passes

Search period start: 02 September 2014 00:00
Search period end: 12 September 2014 00:00
Orbit: 277 x 734 km, 69.5° (Epoch: 02 September)

Date Brightness Start Highest point End Pass type
(mag) Time Alt. Az. Time Alt. Az. Time Alt. Az.
02 Sep ? 21:26:31 10° NNE 21:27:06 12° NNE 21:27:06 12° NNE visible
03 Sep ? 21:07:59 10° NNE 21:08:42 12° NNE 21:08:42 12° NNE visible
03 Sep ? 22:43:28 10° NW 22:43:28 10° NW 22:43:28 10° NW visible
04 Sep ? 20:49:24 10° NNE 20:50:12 11° NE 20:50:12 11° NE visible
04 Sep ? 22:24:25 10° NNW 22:24:58 13° NW 22:24:58 13° NW visible
05 Sep ? 20:30:59 10° NE 20:31:36 10° NE 20:31:36 10° NE visible
05 Sep ? 22:05:15 10° NNW 22:06:22 17° NW 22:06:22 17° NW visible
06 Sep ? 21:45:56 10° NNW 21:47:40 23° NNW 21:47:40 23° NNW visible
07 Sep ? 21:26:30 10° NNW 21:28:54 32° NNW 21:28:54 32° NNW visible
08 Sep ? 21:06:57 10° NNW 21:10:02 48° NNW 21:10:02 48° NNW visible
09 Sep ? 20:47:16 10° NNW 20:51:07 73° NNE 20:51:07 73° NNE visible
10 Sep ? 20:27:27 10° NNW 20:31:27 64° ENE 20:32:08 51° ESE visible
11 Sep ? 20:07:31 10° NNW 20:11:26 53° ENE 20:13:05 27° SE visible
